Regional Weather Roundup
Issued by NWS

Home | Current Version | Previous Version | Graphics & Text | Print | Product List | Glossary On
Versions: 1 2 3 4 5 6 7 8 9 10 11 12 13 14 15 16 17 18 19 20 21 22 23 24 25 26 27 28 29 30 31 32 33 34 35 36 37 38 39 40 41 42 43 44 45 46 47 48 49 50
000
ASUS43 KMPX 191601
RWRMN
WEATHER ROUNDUP FOR MINNESOTA
NATIONAL WEATHER SERVICE TWIN CITIES/CHANHASSEN MN
1000 AM CST FRI JAN 19 2018


NOTE: "FAIR" INDICATES FEW OR NO CLOUDS BELOW 12,000 FEET WITH NO
SIGNIFICANT WEATHER AND/OR OBSTRUCTIONS TO VISIBILITY. N/A MEANS
CURRENT SKY AND/OR WEATHER CONDITIONS ARE NOT AVAILABLE.

MNZ060>063-068>070-191700-
   Twin Cities Metro

CITY           SKY/WX    TMP DP  RH WIND       PRES   REMARKS
TWIN CITIES    CLOUDY    32  27  81 SE6       29.57F WCI  26
ST PAUL        FAIR      31  26  82 SE8       29.59F WCI  23
CRYSTAL        FAIR      34  23  64 S10       29.54F WCI  26
BLAINE         CLOUDY    34  27  75 S9        29.55F WCI  26
LAKEVILLE      FAIR      30  27  86 S8        29.58F WCI  23
EDEN PRAIRIE   FAIR      33  25  72 S12       29.55F WCI  24
SOUTH ST PAUL  FAIR      34  26  72 S6        29.58F WCI  28
LAKE ELMO      FAIR      32  27  80 S10       29.59S WCI  24
$$
MNZ001>005-007-008-013>017-022>024-027-028-191700-
   Northwest Minnesota

CITY           SKY/WX    TMP DP  RH WIND       PRES   REMARKS
BEMIDJI        FAIR      35  27  72 W6        29.43R WCI  30
HALLOCK        CLOUDY    34  30  86 SE5       29.40F WCI  30
ROSEAU         LGT RAIN  39  32  75 W9        29.41R
WARROAD        FAIR      37  32  81 SW14      29.40R
CROOKSTON      FAIR      28  27  93 S10       29.47S WCI  19
FOSSTON        FAIR      28  23  80 SW9       29.48R WCI  20
DETROIT LAKES  FAIR      34  28  80 CALM      29.49R
MOORHEAD       FAIR      27  23  86 SW6       29.52R WCI  20
PARK RAPIDS    FAIR      32  26  78 SW5       29.45F WCI  27
MAHNOMEN       FAIR      28  25  86 S8        29.47R WCI  20
$$
MNZ006-009>011-018-025>026-191700-
   North Central Minnesota

CITY           SKY/WX    TMP DP  RH WIND       PRES   REMARKS
BAUDETTE       CLOUDY    36  29  75 SW9       29.36R
FLAG ISLAND    PTSUNNY   37  30  75 W13G18    29.33R
INTL FALLS     CLOUDY    35  27  72 SW8       29.36S WCI  29
WASKISH        PTSUNNY   37  30  75 SW12      29.38S
BIG FORK       FAIR      34  27  75 SW8       29.40S WCI  27
LONGVILLE      FAIR      37  27  65 S6        29.43F
GRAND RAPIDS   FAIR      33  25  72 S10       29.45F WCI  25
CRANE LAKE     FAIR      34  27  75 CALM      29.38F
ORR            FAIR      34  25  69 S6        29.35F WCI  29
COOK           CLOUDY    36  27  69 S6        29.38F
WALKER         FAIR      36  26  67 SW6       29.44R
$$
MNZ012-019>021-037-191700-
   Northeast Minnesota

CITY           SKY/WX    TMP DP  RH WIND       PRES   REMARKS
DULUTH         FAIR      32  26  78 SW10      29.46F WCI  24
ELY            FAIR      34  27  75 SW8       29.40F WCI  27
HIBBING        FAIR      29  25  85 S5        29.42F WCI  24
EVELETH        FAIR      31  25  76 SW6       29.44F WCI  26
DULUTH HARBOR  FAIR      34  28  80 SW10      29.51S WCI  26
TWO HARBORS    FAIR      34  27  75 SW6       29.45S WCI  29
SILVER BAY     FAIR      30  27  86 SW5       29.43S WCI  25
GRAND MARAIS     N/A     34  28  79 W7        29.45S WCI  28
G MARAIS ARPRT FAIR      27  23  86 SW3       29.40S FOG
$$
MNZ029>031-032-039>041-046>048-054>057-064-191700-
   West Central Minnesota

CITY           SKY/WX    TMP DP  RH WIND       PRES   REMARKS
FERGUS FALLS   FAIR      30  25  80 CALM      29.50R
WHEATON        CLOUDY    32  27  80 CALM      29.53R
MORRIS         CLOUDY    32  28  86 SE3       29.49S
ALEXANDRIA     FAIR      36  27  69 CALM      29.50R
ELBOW LAKE     FAIR      32  27  83 SE6       29.49F WCI  26
WADENA         FAIR      30  25  80 SW5       29.47F WCI  25
GLENWOOD       FAIR      36  28  75 SW5       29.50R
APPLETON       CLOUDY    34  27  75 N3        29.52R
BENSON         CLOUDY    34  28  80 CALM      29.53R
ORTONVILLE     CLOUDY    32  27  80 CALM      29.50R
MADISON        CLOUDY    39  30  70 W6        29.51R
WILLMAR        FAIR      32  28  86 S7        29.52F WCI  26
$$
MNZ033>034-036-042>043-049>051-058-059-191700-
   Central Minnesota

CITY           SKY/WX    TMP DP  RH WIND       PRES   REMARKS
ST CLOUD       FAIR      32  27  81 SE6       29.53R WCI  26
SAUK CENTRE      N/A     32  27  81 CALM      29.50F
PAYNESVILLE    FAIR      34  29  81 CALM      29.50F
AITKIN         FAIR      32  25  74 S5        29.48S WCI  27
PINE RIVER     FAIR      30  25  80 S5        29.50F WCI  25
BRAINERD       FAIR      32  26  78 S3        29.50S
STAPLES        FAIR      28  25  86 CALM      29.48F
LONG PRAIRIE   FAIR      30  27  86 CALM      29.50S
LITTLE FALLS   FAIR      32  23  69 CALM      29.52R
LITCHFIELD     FAIR      36  28  75 S3        29.51F
BUFFALO        FAIR      33  26  75 S6        29.55S WCI  27
MAPLE LAKE     FAIR      34  29  81 MISG      29.54R
HUTCHINSON     FAIR      33  29  85 S7        29.55F WCI  26
$$
MNZ037-044-045-052-053-191700-
   East Central Minnesota

CITY           SKY/WX    TMP DP  RH WIND       PRES   REMARKS
PRINCETON      FAIR      36  28  75 S3        29.53S
MORA           FAIR      32  28  86 S3        29.55S
CAMBRIDGE        N/A     36  25  64 S6        29.55R
RUSH CITY      FAIR      33  27  77 S3        29.55R
MOOSE LAKE     FAIR      32  27  80 S7        29.50F WCI  26
HINCKLEY       FAIR      30  28  93 CALM      29.54S
CLOQUET        FAIR      30  25  80 SW5       29.49R WCI  25
MCGREGOR       FAIR      32  28  86 S6        29.50S WCI  26
$$
MNZ071>073-080-081-089-090-097-098-191700-
   Southwest Minnesota

CITY           SKY/WX    TMP DP  RH WIND       PRES   REMARKS
MONTEVIDEO     CLOUDY    34  28  80 SW5       29.48F WCI  30
GRANITE FALLS  CLOUDY    35  31  85 S7        29.53F WCI  29
CANBY          CLOUDY    39  30  71 SW6G12    29.49F
MARSHALL       CLOUDY    39  29  67 SW14      29.51F
REDWOOD FALLS  CLOUDY    34  29  82 S8        29.53F WCI  27
OLIVIA         CLOUDY    34  30  86 S7        29.52S WCI  28
PIPESTONE      CLOUDY    32  27  80 SW10      29.54S WCI  24
WINDOM         CLOUDY    34  18  51 S16       29.55S WCI  23
WORTHINGTON    CLOUDY    34  27  75 SW22      29.55S WCI  22
JACKSON        CLOUDY    34  27  75 SW15G22   29.58S WCI  24
SLAYTON        CLOUDY    32  28  84 SW22      29.52F WCI  20
$$
MNZ065>067-074>077-082>085-091>093-191700-
   South Central Minnesota

CITY           SKY/WX    TMP DP  RH WIND       PRES   REMARKS
MANKATO        FAIR      30  25  81 S10       29.59F WCI  21
NEW ULM        CLOUDY    34  27  75 S14       29.54F WCI  24
ST JAMES       CLOUDY    34  27  75 S16       29.57S WCI  23
FAIRMONT       CLOUDY    33  25  72 S17       29.59F WCI  22
FARIBAULT      FAIR      30  25  80 S9        29.60F WCI  22
OWATONNA       FAIR      32  27  80 S15       29.60F WCI  22
WASECA         FAIR      32  27  80 S14       29.62S WCI  22
ALBERT LEA     FAIR      34  23  64 S9        29.62F WCI  26
$$
MNZ078>079-086>088-094>096-191700-
   Southeast Minnesota

CITY           SKY/WX    TMP DP  RH WIND       PRES   REMARKS
ROCHESTER      FAIR      29  24  82 S14       29.64S WCI  18
RED WING       FAIR      32  21  64 SE3       29.63S
STANTON        FAIR      33  26  73 S14       29.59F WCI  24
DODGE CENTER   FAIR      30  25  80 S14       29.62F WCI  20
WINONA         FAIR      34  27  75 S3        29.68R
AUSTIN         FAIR      27  21  80 S9        29.65F WCI  17
PRESTON        FAIR      30  23  75 SW14      29.68R WCI  19
$$
ABBREVIATIONS USED IN REMARKS
   TC - TEMPERATURES IN CELSIUS
  WCI - WIND CHILL INDEX
   HX - HEAT INDEX
  VSB - VISIBILITY
$$




USA.gov is the U.S. government's official web portal to all federal, state and local government web resources and services.